Regional Weather Roundup
Issued by NWS

Home | Current Version | Previous Version | Graphics & Text | Print | Product List | Glossary Off
Versions: 1 2 3 4 5 6 7 8 9 10 11 12 13 14 15 16 17 18 19 20 21 22 23 24 25 26 27 28 29 30 31 32 33 34 35 36 37 38 39 40 41 42 43 44 45 46 47 48 49 50

000
ASUS43 KBIS 040510
RWRND

NORTH DAKOTA REGIONAL WEATHER ROUNDUP
NATIONAL WEATHER SERVICE BISMARCK ND
1200 AM CDT TUE AUG 04 2015

NOTE: "FAIR" INDICATES FEW OR NO CLOUDS BELOW 12,000 FEET WITH NO
SIGNIFICANT WEATHER AND/OR OBSTRUCTIONS TO VISIBILITY.


NDZ001>003-009>011-017-040600-
NORTHWEST NORTH DAKOTA

CITY           SKY/WX    TMP DP  RH WIND       PRES   REMARKS
WILLISTON      CLEAR     67  51  56 E5        29.97S
MINOT          CLEAR     64  50  60 S5        29.97S
MINOT AFB      CLEAR     57  51  81 CALM      29.96S
$$

NDZ018>021-031>035-040>046-040600-
SOUTHWEST NORTH DAKOTA

CITY           SKY/WX    TMP DP  RH WIND       PRES   REMARKS
BISMARCK       CLEAR     62  51  67 NE3       29.98S
DICKINSON      PTCLDY    58  50  75 E9        29.98S
GARRISON         N/A     59  53  80 E3        29.98S
HETTINGER ARPT MOCLDY    65  52  62 E9        30.00R
$$

NDZ004>008-012>016-024-026-027-054-040600-
NORTHEAST NORTH DAKOTA

CITY           SKY/WX    TMP DP  RH WIND       PRES   REMARKS
GRAND FORKS    CLEAR     55  50  83 CALM      29.92S
GRND FRKS AFB  CLEAR     57  49  73 NW3       29.93R
DEVILS LAKE    CLEAR     63  52  67 SW6       29.96S
$$

NDZ022-023-025-028>030-036>039-047>053-040600-
SOUTHEAST NORTH DAKOTA

CITY           SKY/WX    TMP DP  RH WIND       PRES   REMARKS
FARGO          CLEAR     56  49  77 CALM      29.95R
JAMESTOWN      CLEAR     58  52  80 CALM      29.98R
$$



USA.gov is the U.S. government's official web portal to all federal, state and local government web resources and services.